Regional Weather Roundup
Issued by NWS

Home | Current Version | Previous Version | Graphics & Text | Print | Product List | Glossary On
Versions: 1 2 3 4 5 6 7 8 9 10 11 12 13 14 15 16 17 18 19 20 21 22 23 24 25 26 27 28 29 30 31 32 33 34 35 36 37 38 39 40 41 42 43 44 45 46 47 48 49 50
000
ASUS43 KMKX 290421
RWRWI

WISCONSIN REGIONAL WEATHER ROUNDUP
NATIONAL WEATHER SERVICE MILWAUKEE/SULLIVAN WI
1100 PM CDT TUE MAR 28 2017

NOTE: "FAIR" INDICATES FEW OR NO CLOUDS BELOW 12,000 FEET WITH NO
SIGNIFICANT WEATHER AND/OR OBSTRUCTIONS TO VISIBILITY.

WIZ001-002-006>008-014>016-023>028-290500-
NORTHWEST WISCONSIN

CITY           SKY/WX    TMP DP  RH WIND       PRES   REMARKS
SUPERIOR ARPT  CLEAR     36  33  90 NE10G18   30.29R WCI  28
ASHLAND        CLEAR     33  30  88 N8        30.27R WCI  26
HAYWARD        CLEAR     37  25  61 N5        30.22S WCI  33
SIREN          PTCLDY    35  28  73 CALM      30.22R
CUMBERLAND     CLEAR     36  28  75 CALM      30.21R
RICE LAKE      CLEAR     36  32  84 CALM      30.22R
CHETEK         CLEAR     36  29  78 CALM      30.21S
LADYSMITH      CLEAR     38  29  68 CALM      30.23S
EAU CLAIRE     CLEAR     40  29  64 CALM      30.20R
MENOMONIE      CLEAR     40  32  72 CALM      30.21R
NEW RICHMOND   CLEAR     39  32  76 CALM      30.21R
OSCEOLA        CLEAR     39  30  71 CALM      30.23R
$$

WIZ003>005-009-010-017-018-290500-
NORTH CENTRAL WISCONSIN

CITY           SKY/WX    TMP DP  RH WIND       PRES   REMARKS
MANITOWISH WTR CLEAR     30  27  88 CALM      30.24R
ARBOR VITAE    CLEAR     37  29  74 CALM      30.23S
WOODRUFF       CLEAR     37  29  74 CALM      30.23S
RHINELANDER    CLEAR     37  26  64 E3        30.24R
EAGLE RIVER    CLEAR     32  26  79 CALM      30.24S
LAND O LAKES   CLEAR     31  27  85 CALM      30.27R
PHILLIPS       PTCLDY    39  27  61 CALM      30.23R
TOMAHAWK       CLEAR     31  24  75 CALM      30.24R
MEDFORD        CLEAR     34  31  88 E6        30.21S WCI  29
MERRILL        CLEAR     32  28  83 CALM      30.24R
$$

WIZ029-030-035-036-043>047-290500-
CENTRAL WISCONSIN

CITY           SKY/WX    TMP DP  RH WIND       PRES   REMARKS
WAUSAU         CLEAR     44  31  60 E5        30.22R
MOSINEE        CLEAR     41  30  65 SE5       30.24S
MARSHFIELD     CLEAR     44  31  60 SE3       30.21R
STEVENS POINT  CLEAR     32  29  89 CALM      30.23S
WAUPACA        CLEAR     39  31  71 CALM      30.24S
WAUTOMA        CLEAR     34  31  88 CALM      30.24F
WISC RAPIDS    CLEAR     41  31  67 SE6       30.23S
CAMP DOUGLAS   MOCLDY    39  32  75 SE5       30.22S
$$

WIZ011>013-019>022-031-037>040-048>050-290500-
NORTHEAST WISCONSIN

CITY           SKY/WX    TMP DP  RH WIND       PRES   REMARKS
ANTIGO         CLEAR     37  29  74 SE7       30.25R WCI  31
SHAWANO        CLEAR     36  33  88 CALM      30.27R
OCONTO         CLEAR     30  29  96 CALM      30.28R
STURGEON BAY   CLEAR     32  31  96 NW5       30.25R WCI  27
GREEN BAY      CLEAR     35  34  96 N6        30.26R WCI  30
MANITOWOC      CLEAR     32  30  92 CALM      30.25S
APPLETON       PTCLDY    39  36  87 VRB3      30.23R
CLINTONVILLE   CLEAR     36  30  80 N3        30.25R
OSHKOSH        CLEAR     40  35  83 CALM      30.23S
$$

WIZ032>034-041-042-053>061-290500-
SOUTHWEST WISCONSIN

CITY           SKY/WX    TMP DP  RH WIND       PRES   REMARKS
LA CROSSE      CLOUDY    45  40  82 CALM      30.20R
SPARTA         CLOUDY    38  34  84 CALM      30.22S
VIROQUA        CLOUDY    44  35  70 CALM      30.20S
BOSCOBEL       CLOUDY    38  35  89 CALM      30.21R
PRAIRIE DU CHI CLOUDY    41  37  86 CALM      30.20R
PLATTEVILLE    CLOUDY    46  40  80 NE9       30.20R
$$

WIZ056-057-062-063-064-067-068-290500-
SOUTH CENTRAL WISCONSIN

CITY           SKY/WX    TMP DP  RH WIND       PRES   REMARKS
REEDSBURG      CLEAR     44  32  63 CALM      30.22S
BARABOO/DELLS  CLEAR     42  32  67 E6        30.23R
LONE ROCK      CLEAR     45  36  70 SE3       30.22R
MINERAL POINT  CLOUDY    45  37  76 E8        30.20R
MADISON        CLEAR     40  36  86 SE5       30.22R
MIDDLETON      CLEAR     41  37  86 CALM      30.22S
WATERTOWN      CLEAR     35  35 100 E7        30.23S WCI  29
MONROE         CLEAR     43  36  75 NE8       30.20S
JANESVILLE     CLEAR     36  34  93 E6        30.22S WCI  31
$$

WIZ051-052-058>065-066-070>072-290500-
SOUTHEAST WISCONSIN

CITY           SKY/WX    TMP DP  RH WIND       PRES   REMARKS
MILWAUKEE      FOG       34  33  96 N6        30.25S VSB 1/4 WCI  29
WAUKESHA       FOG       32  32 100 E5        30.25R VSB 1/4 WCI  27
MILWAUKEE/TIMM FOG       32  32 100 NE3       30.26S VSB 1/2
RACINE         FOG       34  33  96 N6        30.26S VSB 1/4 WCI  29
KENOSHA        FOG       35  34  96 NE8       30.24S VSB 1/4 WCI  29
FOND DU LAC    CLEAR     38  33  82 CALM      30.24R
SHEBOYGAN      FOG       32  30  92 CALM      30.24S VSB 1/2
WEST BEND      FOG       34  34 100 CALM      30.25S VSB 1/2
JUNEAU         CLEAR     38  35  87 NE6       30.24S WCI  34
$$

LSZ147-162-290500-
LAKE SUPERIOR

STATION/POSITION TIME  TEMP    WIND        PRES    WAVE
                       AIR SEA DIR/SP/G            HT/PER
                 (UTC) (F)     (DEG/KT/KT) (MB)    (FT/S)
DEVILS ISLAND    0400   35      40/ 15/ 16 1026.7R
PORT WING        0330   35      40/ 15/ 17 1025.1S
SAXON HARBOR     0340   31     200/  3/  3 1024.4R
$$

LMZ867-665-643>646-290500-
LAKE MICHIGAN

STATION/POSITION TIME  TEMP    WIND        PRES    WAVE
                       AIR SEA DIR/SP/G            HT/PER
                 (UTC) (F)     (DEG/KT/KT) (MB)    (FT/S)
CHAMBERS ISLAND  0340   31     350/  2/  4 1024.7R
NORTHPORT PIER   0340   32     300/  3/  6 1025.4R
SISTER BAY       0236   32     330/  3/  4   N/A
KEWAUNEE LAKESHO 0354   30     310/  2/  4 1024.1R
SHEBOYGAN LAKESH 0400   33     250/  2/  3 1024.9R
PORT WASHINGTON  0340   34     330/  2/  3 1025.7R
MILWAUKEE LAKESH 0400   33      10/  5/  7   N/A
KENOSHA   LAKESH 0400   34      20/ 10/ 13 1024.0
$$

TC  - TEMPERATURE IN CELSIUS
VSB - VISIBILITY IN STATUTE MILES
WCI - WIND CHILL INDEX
HX  - HEAT INDEX





USA.gov is the U.S. government's official web portal to all federal, state and local government web resources and services.